Location: Buckeye Ditch
(40.9104°N, 122.9517°W)
Time: 23:34:57
(UTC+00:00)

Transit 2A - Pass Details

Date: 19 May 2025
Orbit: 599 x 947 km, 66.7° (Epoch: 20 June)

Event Time Altitude Azimuth Distance (km) Brightness Sun altitude
Rises 15:48:53 0° 230° (SW) 3,040 8.7 31.7°
Reaches altitude 10° 15:51:26 10° 239° (WSW) 2,077 7.9 32.1°
Maximum altitude 15:55:42 35° 306° (NW) 1,019 6.6 33.0°
Drops below altitude 10° 15:59:45 10° 13° (NNE) 1,971 8.4 33.7°
Sets 16:02:08 0° 22° (NNE) 2,861 9.2 34.2°
